Regional Weather Roundup
Issued by NWS Bismarck, ND

Current Version | Previous Version | Text Only | Print | Product List | Glossary On
Versions: 1 2 3 4 5 6 7 8 9 10 11 12 13 14 15 16 17 18 19 20 21 22 23 24 25 26 27 28 29 30 31 32 33 34 35 36 37 38 39 40 41 42 43 44 45 46 47 48 49 50
456
ASUS43 KBIS 170910
RWRBIS

NWR BROADCAST TEXT
NATIONAL WEATHER SERVICE BISMARCK ND
300 AM CST THU JAN 17 2019

NOTE: "FAIR" INDICATES FEW OR NO CLOUDS BELOW 12,000 FEET WITH NO
SIGNIFICANT WEATHER AND/OR OBSTRUCTIONS TO VISIBILITY.


CITY           SKY/WX    TMP DP  RH WIND       PRES   REMARKS
WILLISTON      CLOUDY    18  15  88 N5        30.07R WCI  11
MINOT          CLOUDY    11   6  81 N5        30.08R WCI   3
MINOT AFB      CLOUDY     9   5  85 N3        30.08R
BISMARCK       CLOUDY    17  13  84 CALM      30.08S
DICKINSON      CLOUDY    21  18  88 CALM      29.98R FOG
GARRISON         N/A     15  14  95 E3        30.04S
HETTINGER ARPT CLOUDY    20  18  92 S3        30.00S FOG
JAMESTOWN      CLOUDY     6   2  83 S5        30.10S WCI  -3
CARRINGTON     CLOUDY     9   5  85 SE7       30.11S WCI  -3
HAZEN          CLOUDY    18  18 100 CALM      30.08S FOG
LINTON           N/A     14  10  85 S5        30.10S WCI   6
MANDAN         CLOUDY    16  16 100 SW6       30.05S WCI   7
OAKES          CLOUDY    -2  -6  84 CALM      30.15R
RUGBY          CLOUDY     7   5  92 E5        30.09S WCI  -2
STANLEY        CLOUDY    14  14 100 CALM      30.04S FOG
TIOGA          CLOUDY    14  14 100 CALM      30.06R
WATFORD CITY   FOG       19  19 100 NW3       30.04R VSB 1/4
$$

CITY           SKY/WX    TMP DP  RH WIND       PRES   REMARKS
GRAND FORKS    CLOUDY     2  -5  72 CALM      30.20S
GRAND FORKS AF FLURRIES   3  -3  75 CALM      30.19R
DEVILS LAKE    FLURRIES   4   1  88 E3        30.12S
FARGO          PTCLDY    -2  -8  76 CALM      30.18F
CANDO          CLOUDY     5   3  92 CALM      30.13S
CAVALIER       CLOUDY     1  -4  78 CALM      30.20R
GRAFTON        CLOUDY     1  -2  85 CALM      30.23R
GWINNER          N/A     -2  -6  84 N3        30.15R
LANGDON        CLOUDY     3   1  92 SW5       30.11S WCI  -6
ROLLA          FLURRIES   5   1  85 N5        30.09R WCI  -4
WALHALLA         N/A      1  -4  78 CALM      30.19R
$$

CITY           SKY/WX    TMP DP  RH WIND       PRES   REMARKS
ABERDEEN       CLOUDY     8   2  76 NW3       30.15S
MOBRIDGE       CLOUDY    18  13  80 S5        30.06S HAZE    WCI  11
BUFFALO          N/A     25  22  88 SW3       29.94S
RAPID CITY     FOG       24  22  91 S5        29.97S VSB 1/2 WCI  18
GLASGOW        CLOUDY    23  20  88 N6        30.03F WCI  16
SIDNEY         CLOUDY    20  18  92 N8        30.06S FOG     WCI  10
WOLF POINT     CLOUDY    22  18  85 N7        30.07F WCI  13
GLENDIVE       CLOUDY    23  22  96 N7        30.02S FOG     WCI  15
MILES CITY     CLOUDY    23  23 100 N7        29.99S FOG     WCI  15
BAKER          CLOUDY    21  19  92 CALM      29.98R FOG
$$

CITY           SKY/WX    TMP DP  RH WIND       PRES   REMARKS
BILLINGS       PTCLDY    23  18  81 N3        29.93S
GREAT FALLS    CLOUDY    18  16  92 N9        30.01R WCI   7
REGINA         LGT SNOW   7   1  78 N12       30.13R FOG     WCI  -9
ESTEVAN        LGT SNOW   7   3  85 NE3       30.09S
$$





USA.gov is the U.S. government's official web portal to all federal, state and local government web resources and services.